Tracking 35274 objects as of 11-Sep-2026
HD Live streaming from Space Station
objects crossing your sky now

MOLNIYA 3-17


MOLNIYA 3-17 is no longer on orbit


NORAD ID: 12915
Int'l Code: 1981-105A
Launch date: October 17, 1981
Source: Commonwealth of Independent States (former USSR) (CIS)
Launch site: PLESETSK MISSILE AND SPACE COMPLEX (PKMTR)
Decay date: 1997-01-09
Your satellite tracking list
Your tracking list is empty




NASA's NSSDC Master Catalog

Two Line Element Set (TLE):
1 12915U 81105A   97008.62998873  .99999999  16906-4  12024-2 0  9998
2 12915 062.2786 045.6953 1358123 268.6411 076.4929 13.45625141 70987
Source of the keplerian elements: AFSPC